When you browse on this site, cookies collect data to enhance your experience and personalize the content and advertising you see.
Visit our Privacy Policy to learn more. By continuing to use the site, you agree to this use of cookies and data.
  • In Italy
  • List of Countries
  • For 7 days
  • Water Temperature
  • Satellite Maps
  • Weather Map
  • Weather Widgets
  • user-avatar
    Login

    Hourly Weather Suhaya Polenica

    Today, 21 February, Thursday

    Time Temperature Precipitation Wind Pressure Humidity
    00:00 -8°C° 0 mm 6 mps 731 mmHg 78%
    01:00 -8°C° 0 mm 6 mps 731 mmHg 79%
    02:00 -7°C° 0 mm 4 mps 732 mmHg 84%
    03:00 -8°C° 0 mm 5 mps 732 mmHg 81%
    04:00 -9°C° 0 mm 6 mps 732 mmHg 79%
    05:00 -9°C° 0 mm 7 mps 733 mmHg 76%
    06:00 -9°C° 0 mm 7 mps 733 mmHg 77%
    07:00 -11°C° 0 mm 7 mps 734 mmHg 77%
    08:00 -10°C° 0 mm 6 mps 734 mmHg 78%
    09:00 -11°C° 0.1 mm 7 mps 735 mmHg 75%
    10:00 -11°C° 0.1 mm 7 mps 736 mmHg 73%
    11:00 -10°C° 0.1 mm 8 mps 736 mmHg 71%
    12:00 -10°C° 0 mm 8 mps 737 mmHg 70%
    13:00 -10°C° 0 mm 8 mps 737 mmHg 70%
    14:00 -9°C° 0 mm 6 mps 737 mmHg 71%
    15:00 -9°C° 0.1 mm 6 mps 738 mmHg 72%
    16:00 -10°C° 0.1 mm 6 mps 738 mmHg 73%
    17:00 -10°C° 0.1 mm 6 mps 739 mmHg 74%
    18:00 -11°C° 0 mm 6 mps 739 mmHg 75%
    19:00 -11°C° 0 mm 5 mps 740 mmHg 76%
    20:00 -12°C° 0 mm 5 mps 740 mmHg 78%
    21:00 -12°C° 0 mm 5 mps 741 mmHg 77%
    22:00 -13°C° 0 mm 5 mps 741 mmHg 77%
    23:00 -13°C° 0 mm 5 mps 742 mmHg 77%

    Tomorrow, 22 February, Friday

    Time Temperature Precipitation Wind Pressure Humidity
    00:00 -13°C° 0 mm 5 mps 742 mmHg 77%
    01:00 -14°C° 0 mm 5 mps 742 mmHg 77%
    02:00 -14°C° 0 mm 5 mps 743 mmHg 76%
    03:00 -14°C° 0 mm 5 mps 743 mmHg 77%
    04:00 -15°C° 0 mm 6 mps 744 mmHg 77%
    05:00 -15°C° 0 mm 6 mps 744 mmHg 78%
    06:00 -15°C° 0 mm 6 mps 744 mmHg 77%
    07:00 -15°C° 0 mm 6 mps 745 mmHg 77%
    08:00 -15°C° 0 mm 7 mps 745 mmHg 77%
    09:00 -14°C° 0 mm 7 mps 746 mmHg 75%
    10:00 -14°C° 0 mm 7 mps 746 mmHg 73%
    11:00 -13°C° 0 mm 8 mps 747 mmHg 71%
    12:00 -13°C° 0 mm 8 mps 748 mmHg 71%
    13:00 -12°C° 0 mm 8 mps 748 mmHg 70%
    14:00 -12°C° 0 mm 8 mps 748 mmHg 69%
    15:00 -12°C° 0 mm 7 mps 749 mmHg 70%
    16:00 -12°C° 0 mm 6 mps 750 mmHg 72%
    17:00 -12°C° 0 mm 5 mps 750 mmHg 74%
    18:00 -12°C° 0 mm 5 mps 751 mmHg 76%
    19:00 -13°C° 0 mm 5 mps 752 mmHg 78%
    20:00 -13°C° 0 mm 5 mps 752 mmHg 80%
    21:00 -14°C° 0 mm 5 mps 753 mmHg 81%
    22:00 -14°C° 0 mm 5 mps 753 mmHg 83%
    23:00 -14°C° 0 mm 4 mps 754 mmHg 85%

    Day after tomorrow, 23 February, Saturday

    Time Temperature Precipitation Wind Pressure Humidity
    00:00 -14°C° 0 mm 4 mps 754 mmHg 86%
    01:00 -14°C° 0 mm 4 mps 755 mmHg 88%
    02:00 -14°C° 0 mm 3 mps 755 mmHg 90%
    03:00 -14°C° 0 mm 3 mps 756 mmHg 91%
    04:00 -14°C° 0 mm 3 mps 756 mmHg 91%
    05:00 -14°C° 0 mm 3 mps 756 mmHg 92%
    06:00 -14°C° 0 mm 3 mps 756 mmHg 92%
    07:00 -13°C° 0 mm 2 mps 756 mmHg 92%
    08:00 -13°C° 0 mm 2 mps 756 mmHg 91%
    09:00 -12°C° 0 mm 2 mps 757 mmHg 86%
    10:00 -9°C° 0 mm 2 mps 757 mmHg 80%
    11:00 -7°C° 0 mm 2 mps 757 mmHg 75%
    12:00 -7°C° 0 mm 2 mps 756 mmHg 73%
    13:00 -7°C° 0 mm 3 mps 756 mmHg 71%
    14:00 -7°C° 0 mm 4 mps 755 mmHg 68%
    15:00 -7°C° 0 mm 4 mps 755 mmHg 70%
    16:00 -8°C° 0 mm 4 mps 754 mmHg 71%
    17:00 -8°C° 0 mm 4 mps 754 mmHg 72%
    18:00 -8°C° 0.2 mm 5 mps 753 mmHg 77%
    19:00 -8°C° 0.2 mm 5 mps 753 mmHg 81%
    20:00 -9°C° 0.2 mm 6 mps 753 mmHg 85%
    21:00 -8°C° 0.1 mm 5 mps 752 mmHg 87%
    22:00 -8°C° 0.1 mm 5 mps 752 mmHg 88%
    23:00 -7°C° 0.1 mm 5 mps 751 mmHg 90%

    24 February, Sunday

    Time Temperature Precipitation Wind Pressure Humidity
    00:00 -7°C° 0 mm 5 mps 751 mmHg 90%
    01:00 -7°C° 0 mm 5 mps 751 mmHg 91%
    02:00 -6°C° 0 mm 5 mps 750 mmHg 91%
    03:00 -6°C° 0 mm 5 mps 750 mmHg 92%
    04:00 -5°C° 0 mm 4 mps 750 mmHg 92%
    05:00 -4°C° 0 mm 4 mps 750 mmHg 93%
    06:00 -4°C° 0 mm 4 mps 750 mmHg 93%
    07:00 -4°C° 0 mm 4 mps 750 mmHg 93%
    08:00 -4°C° 0 mm 4 mps 750 mmHg 94%
    09:00 -3°C° 0 mm 4 mps 750 mmHg 94%
    10:00 -3°C° 0 mm 4 mps 750 mmHg 95%
    11:00 -2°C° 0 mm 4 mps 750 mmHg 95%
    12:00 -2°C° 0 mm 4 mps 750 mmHg 96%
    13:00 0°C° 0 mm 3 mps 750 mmHg 97%
    14:00 0°C° 0 mm 3 mps 750 mmHg 97%
    15:00 0°C° 0 mm 3 mps 750 mmHg 97%
    16:00 -1°C° 0 mm 3 mps 750 mmHg 96%
    17:00 -1°C° 0 mm 3 mps 749 mmHg 95%
    18:00 -1°C° 0 mm 3 mps 749 mmHg 95%
    19:00 -1°C° 0 mm 3 mps 749 mmHg 96%
    20:00 -1°C° 0 mm 3 mps 749 mmHg 96%
    21:00 -2°C° 0 mm 4 mps 749 mmHg 96%
    22:00 -2°C° 0 mm 4 mps 749 mmHg 95%
    23:00 -1°C° 0 mm 4 mps 748 mmHg 95%

    25 February, Monday

    Time Temperature Precipitation Wind Pressure Humidity
    00:00 -1°C° 0 mm 4 mps 748 mmHg 94%
    01:00 -1°C° 0 mm 4 mps 748 mmHg 94%
    02:00 -1°C° 0 mm 4 mps 748 mmHg 94%
    03:00 -1°C° 0 mm 4 mps 747 mmHg 94%
    04:00 -1°C° 0 mm 4 mps 747 mmHg 94%
    05:00 -1°C° 0 mm 4 mps 747 mmHg 95%
    06:00 -1°C° 0 mm 4 mps 747 mmHg 94%
    07:00 -1°C° 0 mm 4 mps 747 mmHg 94%
    08:00 -1°C° 0 mm 5 mps 747 mmHg 94%
    09:00 -1°C° 0 mm 5 mps 747 mmHg 93%
    10:00 -1°C° 0 mm 5 mps 747 mmHg 92%
    11:00 -1°C° 0 mm 5 mps 747 mmHg 91%
    12:00 -1°C° 0 mm 5 mps 747 mmHg 89%
    13:00 0°C° 0 mm 5 mps 747 mmHg 87%
    14:00 0°C° 0 mm 5 mps 747 mmHg 86%
    15:00 0°C° 0 mm 5 mps 746 mmHg 84%
    16:00 -1°C° 0 mm 5 mps 746 mmHg 82%
    17:00 -1°C° 0 mm 4 mps 746 mmHg 80%
    18:00 -1°C° 0 mm 5 mps 745 mmHg 82%
    19:00 -1°C° 0 mm 5 mps 745 mmHg 83%
    20:00 -2°C° 0 mm 5 mps 744 mmHg 85%
    21:00 -1°C° 0 mm 5 mps 744 mmHg 86%
    22:00 -1°C° 0 mm 5 mps 744 mmHg 88%
    23:00 -1°C° 0 mm 6 mps 743 mmHg 89%

    26 February, Tuesday

    Time Temperature Precipitation Wind Pressure Humidity
    00:00 -1°C° 0.1 mm 5 mps 743 mmHg 89%
    01:00 -1°C° 0.1 mm 5 mps 742 mmHg 90%
    02:00 -1°C° 0.1 mm 5 mps 742 mmHg 90%
    03:00 -1°C° 0 mm 5 mps 742 mmHg 90%
    04:00 -1°C° 0 mm 4 mps 741 mmHg 90%
    05:00 -2°C° 0 mm 4 mps 741 mmHg 91%
    06:00 -2°C° 0 mm 4 mps 741 mmHg 91%
    07:00 -2°C° 0 mm 4 mps 741 mmHg 91%
    08:00 -3°C° 0 mm 4 mps 741 mmHg 92%
    09:00 -2°C° 0 mm 4 mps 740 mmHg 90%
    10:00 -2°C° 0 mm 4 mps 740 mmHg 88%
    11:00 -1°C° 0 mm 4 mps 740 mmHg 86%
    12:00 -1°C° 0.1 mm 4 mps 739 mmHg 87%
    13:00 -1°C° 0.1 mm 4 mps 738 mmHg 88%
    14:00 -1°C° 0.1 mm 4 mps 737 mmHg 89%
    15:00 -1°C° 0.7 mm 4 mps 736 mmHg 90%
    16:00 -1°C° 0.7 mm 5 mps 736 mmHg 91%
    17:00 -1°C° 0.7 mm 5 mps 735 mmHg 91%
    18:00 -2°C° 0.3 mm 6 mps 735 mmHg 89%
    19:00 -2°C° 0.3 mm 7 mps 735 mmHg 87%
    20:00 -2°C° 0.3 mm 8 mps 735 mmHg 85%
    21:00 -2°C° 0.1 mm 7 mps 736 mmHg 85%
    22:00 -2°C° 0.1 mm 7 mps 736 mmHg 85%
    23:00 -2°C° 0.1 mm 6 mps 737 mmHg 86%
    Show more